Location: Peebles
(55.6412°N, 3.1714°W)
Time: 15:02:41
(UTC+01:00)

FENGYUN 1C DEB - Pass Details

Date: 02 July 2022
Orbit: 831 x 862 km, 98.9° (Epoch: 16 August)

Event Time Altitude Azimuth Distance (km) Brightness Sun altitude
Rises 23:11:33 0° 225° (SW) 3,411 ? -7.0°
Reaches altitude 10° 23:15:35 10° 255° (WSW) 2,474 ? -7.2°
Maximum altitude 23:17:46 12° 279° (W) 2,308 ? -7.4°
Drops below altitude 10° 23:19:58 10° 303° (WNW) 2,473 ? -7.5°
Sets 23:24:01 0° 332° (NNW) 3,407 ? -7.8°
